Regional Weather Roundup
Issued by NWS Columbia, SC

Home | Current Version | Previous Version | Text Only | Print | Product List | Glossary On
Versions: 1 2 3 4 5 6 7 8 9 10 11 12 13 14 15 16 17 18 19 20 21 22 23 24 25 26 27
000
ASUS42 KCAE 280810
RWRCAE
REGIONAL WEATHER ROUNDUP
NATIONAL WEATHER SERVICE COLUMBIA SC
400 AM EDT THU JUL 28 2016

NOTE: "FAIR" INDICATES FEW OR NO CLOUDS BELOW 12,000 FEET WITH NO
SIGNIFICANT WEATHER AND/OR OBSTRUCTIONS TO VISIBILITY.

NOT ALL STATIONS ARE QUALITY CONTROLLED BY THE NATIONAL
WEATHER SERVICE. USE DATA WITH CAUTION...ESPECIALLY
DEWPOINT OBSERVATIONS.

SCZ001>056-GAZ040-063>065-077-280900-
...UPSTATE SOUTH CAROLINA...

CITY           SKY/WX    TMP DP  RH WIND       PRES   REMARKS
ANDERSON       CLEAR     81  67  62 W9        30.01S
LIBERTY        SUNNY     75  69  79 SW5       30.00S
SPARTANBURG    CLEAR     79  68  69 SW6       29.98S
CLEMSON        CLEAR     81  66  60 W9        30.02S
GREENVILLE     CLEAR     80  67  64 SW10      30.00F
GREENWOOD      PTCLDY    79  66  64 W8        30.01F
GREER          CLEAR     79  68  69 SW9       29.98S
ROCK HILL      PTCLDY    78  70  76 SW7       29.97F
CHESTER        MOSUNNY   77  68  73 CALM      29.98S
LAURENS        SUNNY     79  68  69 W7        29.99F


...CENTRAL SOUTH CAROLINA...

CITY           SKY/WX    TMP DP  RH WIND       PRES   REMARKS
COLUMBIA APT   CLEAR     80  70  71 SW3       29.97F
COLUMBIA OWENS CLEAR     81  70  69 SW3       29.98F
MCENTIRE ANGB  CLEAR     79  71  77 CALM      29.98F
ORANGEBURG     CLEAR     81  71  71 W6        29.99F
SUMTER SHAW    CLEAR     81  71  70 SW7       29.95S
NEWBERRY       MOSUNNY   79  70  73 SW6       30.02S
AIKEN          FAIR      75  70  83 W3        30.04S
MANNING        FAIR      79  72  78 SW3       29.98S
LANCASTER      SUNNY     77  73  88 SW5       29.97F
WINNSBORO      SUNNY     79  70  73 W5        29.98F


...EASTERN AND COASTAL SOUTH CAROLINA...

CITY           SKY/WX    TMP DP  RH WIND       PRES   REMARKS
MYRTLE BEACH   CLEAR     82  72  69 W9G16     29.98S
N MYRTLE BCH   CLEAR     83  77  82 W7        29.95S
CONWAY         FAIR      79  77  94 SW5       29.96S
MARION           N/A     79  73  83 SW6       29.96S
HARTSVILLE     FAIR      77  70  78 SW3       29.95F
FLORENCE       CLEAR     82  72  71 SW7       29.96F
DARLINGTON     CLEAR     80  74  81 SW6       29.95F
CHARLESTON APT PTCLDY    83  76  79 W7        29.98S
MOUNT PLEASANT FAIR      84  81  89 SW3       29.98S HX  98
WALTERBORO     SUNNY     81  79  94 W3        30.00F
BEAUFORT       CLEAR     82  73  74 W6        30.00S


...EASTERN GEORGIA...

CITY           SKY/WX    TMP DP  RH WIND       PRES   REMARKS
AUGUSTA BUSH F CLEAR     79  70  74 W5        29.99F
AUGUSTA DANIEL PTCLDY    83  69  62 W6        30.01F
WASHINGTON     FAIR      81  73  78 W3        30.02F
CLAXTON        FAIR      75  74  97 CALM      30.02S
STATESBORO     CLEAR     81  73  76 W3        30.02S
SAVANNAH       CLEAR     80  72  76 SW5       30.02F


...SOUTHERN NORTH CAROLINA...

CITY           SKY/WX    TMP DP  RH WIND       PRES   REMARKS
CHARLOTTE      PTCLDY    81  69  67 SW6       29.96F
MONROE         CLEAR     78  70  76 SW6       29.96F
ROCKINGHAM     SUNNY     79  74  85 CALM      29.95S
RUTHERFORDTON    N/A     74  73  97 CALM      29.98F
ASHEVILLE      CLEAR     71  65  81 SW5       30.06F

$$




USA.gov is the U.S. government's official web portal to all federal, state and local government web resources and services.